星链-32892 (STARLINK-32892)

导读

STARLINK-32892是美国于2025年2月4日发射的星链系列卫星,隶属于太空探索技术公司(SpaceX)的星链互联网星座项目。该项目旨在通过近地轨道卫星群,为全球提供高速低延迟宽带互联网服务,尤其覆盖偏远及网络基础设施薄弱地区,此卫星进一步扩充了星链星座的在轨服务规模。

Basic Information
目录编号:
62893
目录名称:
STARLINK-32892
国际标识:
2025-024Q
轨道中心:
EARTH
卫星名称:
星链-32892
卫星全名:
星链-32892 (STARLINK-32892)
卫星状态:
在轨 (已飞行578 天)
发射日期:
2025-02-04 UTC
国别 :
美国 (US)
星等 :
--
Orbit Information
数据来源 国际轨道数据
星历时间: 2026-09-05T06:00:02+0800
10小时前
查看轨道信息
半长轴: 6861.234km
偏心率: 0.0001542
轨道倾角: 43.003°
近地点辐角 277.712°
升交点赤经 33.367°
平近点角 105.050°
近地点: 482.038km
远地点: 484.156km
周期: 94.268分钟
每日圈数: 15.275643
Detailed Information
固有亮度:
5
最大亮度:
2.5
卫星平台:
Starlink V1.0
覆盖范围:
全球
运营商:
太空探索技术公司
运营商所在国:
美国
制造商(研发单位):
太空探索技术公司
制造商所在国:
美国
使用方式:
暂无
Satellite Introduction
Starlink 计划是 SpaceX 推出的全球卫星互联网项目,通过发射低轨道卫星,为全球尤其是偏远地区提供高速、低延迟的互联网服务。自 2019 年起,Starlink 已部署数千颗卫星,旨在缩小全球数字鸿沟,推动互联网普及。该项目还为军事、航空等行业提供通信支持,带来广泛经济效益。
2D Orbit Map
3D Orbit Map
Orbit Altitude Analysis Chart
Orbit Inclination Analysis Chart
Orbit Comprehensive Analysis Chart
View Comprehensive Chart
Conjunction Data List
Event ID Objects TCA Miss Dist (km) Collision Risk Probability Collision Risk Index (CRI) Action
CDM_260906-190606-289306-697521
2026-09-06T
19:06:55+0000
0.360 km
远距离
2.275473E-4 高风险 0.82
CDM_260907-034406-289306-697521
2026-09-07T
03:44:46+0000
0.406 km
远距离
1.773236E-4 高风险 0.8
CDM_260906-120705-599806-289321
2026-09-06T
12:07:11+0000
0.725 km
远距离
4.911303E-5 中风险 0.69
CDM_260907-070305-852706-289321
2026-09-07T
07:03:17+0000
0.831 km
远距离
3.767595E-5 中风险 0.67
CDM_260830-134302-172306-289321
2026-08-30T
13:43:41+0000
1.333 km
极远距离
7.590996E-6 低风险 0.53
CDM_260906-173206-289306-697521
2026-09-06T
17:32:45+0000
1.403 km
极远距离
4.052033E-6 低风险 0.47
CDM_260906-215806-289306-734521
2026-09-06T
21:58:37+0000
1.713 km
极远距离
2.924983E-6 低风险 0.44
CDM_260907-002806-289306-717521
2026-09-07T
00:28:59+0000
1.343 km
极远距离
2.129658E-6 低风险 0.42
CDM_260907-193805-771906-289321
2026-09-07T
19:38:52+0000
2.088 km
极远距离
2.028639E-6 低风险 0.41
CDM_260907-154105-852706-289321
2026-09-07T
15:41:06+0000
2.169 km
极远距离
1.813701E-6 低风险 0.4